[[{"header":{"parameterUnit":"m.s-1","parameterCategory":1,"la1":30.2991,"la2":30.254,"lo1":-89.0895,"lo2":-89.0444,"dy":0.0017,"dx":0.0017,"nx":28,"ny":28,"refTime":"2025-11-30T03:00:00:Z","depth":0,"parameterNumber":2,"parameterNumberName":"U-component_of_WINDS"},"data":[0,0,0,0,0,0,0,0,0,0,0,0,0,0,0,0,0,0,0,0,0,0,0,0,0,0,0,0,0,0,0,0,0,0,0,0,0,0,0,0,0,0,0,0,0,0,0,0,0,0,0,0,0,0,0,0,0,0,-3.7616,-3.7619,0,-3.786,-3.7862,-3.7865,-3.7911,-3.7909,-3.7907,-3.7905,-3.8157,-3.8165,-3.8173,0,0,0,0,0,0,0,0,0,0,0,0,0,-3.7195,-3.7202,-3.7616,-3.7619,-3.7622,-3.7859,-3.7863,-3.7866,-3.7911,-3.7909,-3.7907,-3.7904,-3.8154,-3.8164,-3.8174,0,0,0,0,0,0,0,0,0,0,0,0,0,-3.7402,-3.7205,-3.7615,-3.7673,-3.7681,-3.7859,-3.7863,-3.7867,-3.7912,-3.7909,-3.7906,-3.7903,-3.815,-3.8163,-3.8175,-3.8313,0,0,-3.8214,-3.822,0,0,0,0,0,0,0,0,-3.739,-3.7417,-3.7662,-3.767,-3.7679,-3.7852,-3.7806,-3.8016,-3.7913,-3.7824,-3.7905,-3.7902,-3.8058,-3.8078,-3.813,-3.8325,-3.8335,-3.8216,-3.8223,-3.8229,-3.8232,0,0,0,0,0,0,0,-3.7376,-3.7407,-3.7712,-3.7665,-3.7676,-3.7689,-3.7715,-3.7846,-3.7955,-3.7832,-3.7836,-3.7864,-3.8062,-3.8118,-3.8136,-3.8339,-3.8215,-3.8226,-3.8234,-3.8239,-3.8661,-3.8664,0,0,0,0,0,0,-3.7351,-3.7395,-3.7705,-3.772,-3.7524,-3.7699,-3.7728,-3.7799,-3.7953,-3.7974,-3.7866,-3.7865,-3.8097,-3.8121,-3.8145,-3.8317,-3.8229,-3.8241,-3.8248,-3.8657,-3.8662,-3.8665,0,0,0,0,0,0,-3.7341,-3.7378,-3.7695,-3.7559,-3.76,-3.7709,-3.7789,-3.7806,-3.7861,-3.7979,-3.7999,-3.7903,-3.8096,-3.8127,-3.8271,-3.8326,-3.8246,-3.8258,-3.8653,-3.8659,-3.8664,-3.866,0,0,0,0,0,0,-3.7329,-3.7374,-3.7426,-3.7559,-3.7607,-3.7815,-3.7792,-3.7813,-3.7883,-3.7884,-3.8019,-3.8039,-3.8096,-3.8252,-3.8284,-3.8342,-3.8268,-3.8649,-3.8656,-3.8662,-3.8655,-3.8664,-3.8672,0,0,0,0,0,-3.7314,-3.7415,-3.7428,-3.7466,-3.7674,-3.7818,-3.7846,-3.7909,-3.7887,-3.7941,-3.8018,-3.8034,-3.8315,-3.8266,-3.8303,-3.8365,-3.8645,-3.8654,-3.8661,-3.8652,-3.8662,-3.8672,0,0,0,0,0,0,-3.7286,-3.7434,-3.745,-3.7597,-3.7695,-3.7826,-3.7895,-3.7918,-3.8024,-3.8021,-3.8096,-3.8126,-3.8266,-3.8331,-3.8273,-3.8508,-3.8479,-3.8495,-3.8459,-3.8471,-3.8479,-3.8459,-3.8279,0,0,0,0,0,-3.7297,-3.74,-3.7525,-3.7643,-3.7691,-3.7785,-3.785,-3.7891,-3.7995,-3.8037,-3.8123,-3.8224,-3.8336,-3.8407,-3.8516,-3.8666,-3.8697,-3.8728,-3.8736,-3.8742,-3.8754,-3.8839,-3.8854,-3.8692,-3.8692,-3.8691,0,0,-3.732,-3.7414,-3.7475,-3.764,-3.772,-3.7827,-3.7819,-3.7932,-3.8012,-3.8054,-3.8194,-3.8262,-3.8381,-3.8528,-3.8597,-3.8586,-3.8806,-3.8752,-3.8756,-3.8765,-3.8849,-3.8864,-3.8877,-3.8697,-3.8696,-3.8695,0,0,-3.7417,-3.7499,-3.7606,-3.7688,-3.781,-3.7872,-3.7898,-3.8026,-3.8072,-3.8215,-3.8249,-3.8347,-3.8537,-3.862,-3.8687,-3.882,-3.8839,-3.8853,-3.8895,-3.8977,-3.899,-3.9001,-3.9048,-3.9064,-3.8865,-3.8865,-3.8865,0,-3.7431,-3.7592,-3.7659,-3.7771,-3.7843,-3.7887,-3.7997,-3.8073,-3.8225,-3.8274,-3.826,-3.85,-3.8583,-3.8751,-3.8783,-3.8837,-3.8869,-3.8836,-3.8982,-3.8995,-3.9007,-3.9052,-3.9069,-3.8866,-3.8866,-3.8866,-3.8866,0,-3.7603,-3.7714,-3.7787,-3.7932,-3.8013,-3.8123,-3.8208,-3.8283,-3.8318,-3.8382,-3.8528,-3.863,-3.876,-3.8804,-3.8839,-3.8978,-3.8967,-3.8967,-3.8939,-3.9022,-3.9065,-3.9083,-3.8867,-3.8867,-3.8867,-3.8867,0,0,-3.7685,-3.7868,-3.7893,-3.796,-3.8099,-3.8187,-3.8302,-3.8429,-3.8491,-3.8596,-3.8693,-3.8855,-3.8856,-3.8932,-3.8978,-3.9051,-3.9149,-3.9042,-3.9046,-3.9057,-3.9308,-3.9305,-3.9324,-3.9164,-3.9168,-3.9171,-3.9297,0,-3.7797,-3.7999,-3.8065,-3.8234,-3.8339,-3.8384,-3.8484,-3.8581,-3.8645,-3.8744,-3.8816,-3.8929,-3.8923,-3.8969,-3.9043,-3.9121,-3.92,-3.9113,-3.9256,-3.926,-3.9221,-3.9347,-3.9344,-3.9458,-3.9315,-3.9318,-3.932,0,-3.7954,-3.806,-3.824,-3.8368,-3.8414,-3.8502,-3.8625,-3.8719,-3.8832,-3.8874,-3.896,-3.9001,-3.9124,-3.9092,-3.9262,-3.9201,-3.9265,-3.9312,-3.9318,-3.9332,-3.9293,-3.9362,-3.9497,-3.9513,-3.9348,-3.9346,-3.9344,0,-3.7994,-3.8183,-3.8315,-3.8371,-3.8524,-3.8584,-3.8651,-3.8761,-3.8834,-3.8943,-3.8992,-3.9114,-3.918,-3.9274,-3.9348,-3.9318,-3.9511,-3.9485,-3.955,-3.9548,-3.9585,-3.9581,-3.973,-3.963,-3.963,-3.9629,-3.9629,0,-3.8111,-3.8218,-3.8335,-3.8415,-3.8538,-3.8614,-3.8734,-3.8804,-3.8902,-3.8998,-3.9046,-3.9136,-3.9229,-3.9331,-3.939,-3.9522,-3.9552,-3.959,-3.9604,-3.9584,-3.9579,-3.9624,-3.9617,-3.9634,-3.9633,-3.9632,-3.9631,0,-3.8174,-3.8257,-3.8403,-3.8537,-3.8573,-3.8658,-3.8773,-3.8854,-3.8922,-3.9043,-3.9076,-3.9183,-3.9306,-3.939,-3.9548,-3.9588,-3.9731,-3.9744,-3.9692,-3.9698,-3.9757,-3.9749,-3.9937,-3.9966,-3.9848,-3.985,-3.985,0,-3.8241,-3.8325,-3.8468,-3.8536,-3.8603,-3.8712,-3.8787,-3.8867,-3.8943,-3.9079,-3.9144,-3.9271,-3.9376,-3.9572,-3.9664,-3.9786,-3.9802,-3.986,-3.982,-3.9798,-3.9801,-3.9794,-3.9803,-3.9864,-3.9865,-3.9866,-3.9866,0,-3.8352,-3.839,-3.8495,-3.8617,-3.8705,-3.8805,-3.8905,-3.8958,-3.9056,-3.914,-3.9267,-3.9348,-3.9511,-3.9636,-3.9767,-3.9838,-3.9869,-3.9879,-3.99,-3.9879,-3.9844,-3.9863,-3.9706,-3.9873,-3.9872,-3.9872,-3.9872,-3.9871,-3.8419,-3.8496,-3.8609,-3.8726,-3.881,-3.8903,-3.8986,-3.9065,-3.9171,-3.9309,-3.9351,-3.9483,-3.9596,-3.9775,-3.9849,-3.9954,-3.9948,-3.9979,-3.9987,-3.9992,-3.9991,-3.983,-3.9978,-3.9978,-3.9978,-3.9978,-3.9978,0,-3.8531,-3.8606,-3.8714,-3.8852,-3.8945,-3.8967,-3.908,-3.9156,-3.9271,-3.9374,-3.9477,-3.9624,-3.9747,-3.985,-3.9977,-4.0042,-4.0059,-4.0072,-4.0067,-4.0083,-3.9989,-3.9958,-4.0056,-4.0056,-4.0056,-4.0056,-4.0056,-4.0056,-3.8599,-3.8731,-3.8782,-3.8957,-3.9032,-3.9161,-3.9223,-3.931,-3.9393,-3.9554,-3.9656,-3.9723,-3.9827,-3.9962,-4.0077,-4.0104,-4.0148,-4.0158,-4.0188,-4.0098,-4.0089,-4.008,-4.0051,-4.0167,-4.0167,-4.0272,-4.0273,-4.0274]},{"header":{"parameterUnit":"m.s-1","parameterCategory":1,"la1":30.2991,"la2":30.254,"lo1":-89.0895,"lo2":-89.0444,"dy":0.0017,"dx":0.0017,"nx":28,"ny":28,"refTime":"2025-11-30T03:00:00:Z","depth":0,"parameterNumber":3,"parameterNumberName":"V-component_of_WINDS"},"data":[0,0,0,0,0,0,0,0,0,0,0,0,0,0,0,0,0,0,0,0,0,0,0,0,0,0,0,0,0,0,0,0,0,0,0,0,0,0,0,0,0,0,0,0,0,0,0,0,0,0,0,0,0,0,0,0,0,0,2.8727,2.8726,0,2.8685,2.8685,2.8684,2.8582,2.8579,2.8577,2.8575,2.8535,2.8536,2.8537,0,0,0,0,0,0,0,0,0,0,0,0,0,2.8721,2.8722,2.8727,2.8726,2.8726,2.8685,2.8685,2.8684,2.8582,2.8579,2.8577,2.8574,2.8535,2.8536,2.8537,0,0,0,0,0,0,0,0,0,0,0,0,0,2.8706,2.8722,2.8727,2.867,2.8664,2.8685,2.8685,2.8684,2.8583,2.8579,2.8576,2.8573,2.8535,2.8536,2.8537,2.8612,0,0,2.8542,2.8542,0,0,0,0,0,0,0,0,2.8707,2.8707,2.8679,2.8674,2.8667,2.8635,2.8668,2.866,2.8583,2.8614,2.8575,2.8571,2.8571,2.857,2.8569,2.861,2.8608,2.8542,2.8543,2.8543,2.8544,0,0,0,0,0,0,0,2.8708,2.8708,2.871,2.8678,2.8672,2.8648,2.8642,2.8666,2.8611,2.8611,2.8603,2.86,2.8568,2.8568,2.8567,2.8607,2.8542,2.8543,2.8544,2.8545,2.8708,2.8712,0,0,0,0,0,0,2.8717,2.8709,2.8712,2.8709,2.868,2.865,2.8644,2.8649,2.8611,2.8602,2.8602,2.8595,2.8567,2.8566,2.8566,2.8649,2.8543,2.8545,2.8546,2.8705,2.8709,2.8713,0,0,0,0,0,0,2.8718,2.8718,2.8713,2.8707,2.8705,2.8654,2.866,2.865,2.865,2.8604,2.8594,2.8612,2.8564,2.8564,2.8601,2.8647,2.8545,2.8547,2.8701,2.8706,2.8711,2.8818,0,0,0,0,0,0,2.8718,2.8719,2.8745,2.8708,2.8705,2.8748,2.8663,2.8651,2.8652,2.8642,2.8611,2.8603,2.8562,2.8599,2.8602,2.8647,2.8548,2.8696,2.8703,2.8709,2.881,2.8826,2.884,0,0,0,0,0,2.8718,2.8777,2.8747,2.8748,2.8737,2.8751,2.8749,2.87,2.8656,2.8683,2.8654,2.8604,2.8642,2.8604,2.8607,2.8652,2.8693,2.8701,2.8709,2.8803,2.8823,2.884,0,0,0,0,0,0,2.8821,2.8771,2.8737,2.8786,2.8774,2.8733,2.8765,2.8722,2.8722,2.8713,2.8653,2.8647,2.8693,2.8677,2.8635,2.8723,2.866,2.8668,2.8731,2.8749,2.8764,2.8765,2.8549,0,0,0,0,0,2.885,2.8864,2.882,2.8868,2.8863,2.8816,2.882,2.8784,2.8769,2.8763,2.8737,2.8725,2.8734,2.8741,2.8747,2.8809,2.8801,2.8842,2.8857,2.8869,2.8877,2.8909,2.8926,2.8739,2.8739,2.8738,0,0,2.8908,2.8883,2.8895,2.8888,2.8874,2.8891,2.8812,2.8833,2.8846,2.8766,2.8799,2.8781,2.8764,2.8814,2.8834,2.8801,2.8928,2.8879,2.889,2.889,2.8919,2.8936,2.8952,2.8744,2.8743,2.8742,0,0,2.9023,2.9006,2.9043,2.9031,2.9011,2.898,2.899,2.8957,2.8941,2.8974,2.8914,2.893,2.8947,2.8937,2.8935,2.9051,2.9004,2.9055,2.9132,2.9164,2.9179,2.9191,2.9232,2.9247,2.9063,2.9064,2.9064,0,2.9098,2.912,2.9068,2.9094,2.9093,2.9023,2.9061,2.9052,2.9036,2.9037,2.9001,2.9022,2.9006,2.9053,2.9082,2.9083,2.9092,2.9056,2.9181,2.9193,2.9204,2.9242,2.9258,2.907,2.9069,2.9068,2.9068,0,2.9214,2.9231,2.9264,2.9249,2.9252,2.9285,2.9239,2.9249,2.9214,2.9188,2.9223,2.9202,2.9202,2.9212,2.9178,2.9255,2.9235,2.9191,2.9126,2.9229,2.9264,2.9278,2.9079,2.9076,2.9075,2.9073,0,0,2.9387,2.9346,2.9359,2.9352,2.9326,2.9339,2.937,2.937,2.938,2.9373,2.9397,2.9415,2.9375,2.9372,2.9337,2.9366,2.9459,2.9318,2.9317,2.9343,2.9542,2.9573,2.9591,2.943,2.9432,2.9434,2.9543,0,2.9494,2.9541,2.9497,2.9553,2.9569,2.9505,2.9532,2.952,2.9497,2.9509,2.9484,2.9497,2.9444,2.9442,2.9467,2.9442,2.9497,2.9434,2.9451,2.9452,2.9454,2.9609,2.9641,2.9745,2.9556,2.9559,2.956,0,2.9623,2.9621,2.9679,2.9651,2.9656,2.9681,2.9679,2.969,2.9677,2.9659,2.9658,2.9616,2.9646,2.9585,2.9626,2.9583,2.9589,2.9578,2.9581,2.9578,2.951,2.9608,2.9776,2.9791,2.9581,2.958,2.9578,0,2.9742,2.9755,2.979,2.9787,2.9756,2.9775,2.9764,2.9747,2.9751,2.9751,2.9753,2.9757,2.9758,2.9763,2.9724,2.9683,2.977,2.9705,2.9755,2.9756,2.9772,2.9771,2.9942,2.9781,2.9781,2.9781,2.978,0,2.9863,2.9901,2.9843,2.9865,2.9907,2.9858,2.99,2.9883,2.9869,2.9888,2.9835,2.9854,2.9802,2.9817,2.9787,2.9825,2.9827,2.9813,2.9804,2.9816,2.9817,2.9816,2.9807,2.9785,2.9784,2.9783,2.9782,0,3.0001,2.9964,2.9999,2.9968,2.9962,2.9993,2.9967,2.9988,2.9963,2.9988,2.9991,2.9953,2.9967,2.993,2.9939,2.9919,2.9973,2.9954,2.9977,2.997,3.0021,3.0016,3.0194,3.0214,3.0043,3.0045,3.0047,0,3.0079,3.0106,3.0079,3.0087,3.0078,3.0093,3.0097,3.0052,3.0059,3.0048,3.0069,3.008,3.0084,3.0111,3.0085,3.0092,3.0071,3.0134,3.0072,3.0083,3.007,3.0068,3.007,3.0145,3.0147,3.0149,3.015,0,3.0221,3.0202,3.0209,3.0212,3.0218,3.0217,3.0213,3.0224,3.0176,3.0187,3.0201,3.0205,3.0215,3.0226,3.0228,3.0217,3.0176,3.0171,3.0182,3.0193,3.0204,3.0197,3.0009,3.0166,3.0164,3.0163,3.0162,3.0161,3.0329,3.0351,3.0335,3.0346,3.0339,3.0337,3.0355,3.0333,3.0344,3.0347,3.0322,3.0341,3.0331,3.0329,3.0323,3.0339,3.0311,3.0328,3.0332,3.0336,3.0344,3.0205,3.034,3.0339,3.0339,3.0339,3.0338,0,3.0467,3.0455,3.0465,3.0461,3.0471,3.0433,3.0427,3.0438,3.0455,3.0449,3.0455,3.0473,3.0484,3.046,3.0468,3.0486,3.0467,3.0489,3.0486,3.0484,3.0369,3.0357,3.0504,3.0504,3.0504,3.0504,3.0504,3.0504,3.0539,3.0574,3.0554,3.0586,3.0574,3.0592,3.0592,3.0591,3.0585,3.0607,3.0616,3.0601,3.0588,3.0595,3.0604,3.0597,3.0602,3.063,3.0616,3.0508,3.0492,3.0477,3.0465,3.0632,3.0632,3.073,3.0731,3.0731]}]]